TimeAKDT,TemperatureF,Dew PointF,Humidity,Sea Level PressureIn,VisibilityMPH,Wind Direction,Wind SpeedMPH,Gust SpeedMPH,PrecipitationIn,Events,Conditions,WindDirDegrees,DateUTC
12:16 AM,53.6,48.2,82,29.71,10.0,Calm,Calm,-,N/A,,Unknown,0,2013-07-07 08:16:00
12:36 AM,53.6,46.4,77,29.71,10.0,East,5.8,-,N/A,,Unknown,80,2013-07-07 08:36:00
12:56 AM,53.6,46.4,77,29.70,10.0,Calm,Calm,-,N/A,,Unknown,0,2013-07-07 08:56:00
1:16 AM,51.8,48.2,88,29.69,10.0,West,3.5,-,N/A,,Unknown,270,2013-07-07 09:16:00
1:36 AM,53.6,48.2,82,29.68,10.0,Calm,Calm,-,N/A,,Unknown,0,2013-07-07 09:36:00
1:56 AM,51.8,46.4,82,29.68,10.0,Calm,Calm,-,N/A,,Unknown,0,2013-07-07 09:56:00
2:16 AM,51.8,46.4,82,29.67,10.0,Calm,Calm,-,N/A,,Unknown,0,2013-07-07 10:16:00
2:36 AM,51.8,46.4,82,29.66,10.0,Calm,Calm,-,N/A,,Unknown,0,2013-07-07 10:36:00
2:56 AM,51.8,44.6,76,29.66,10.0,East,3.5,-,N/A,,Unknown,100,2013-07-07 10:56:00
3:16 AM,53.6,44.6,72,29.65,10.0,Calm,Calm,-,N/A,,Unknown,0,2013-07-07 11:16:00
3:36 AM,53.6,44.6,72,29.65,10.0,ESE,3.5,-,N/A,,Unknown,120,2013-07-07 11:36:00
3:56 AM,51.8,44.6,76,29.65,10.0,South,3.5,-,N/A,,Unknown,180,2013-07-07 11:56:00
4:16 AM,51.8,46.4,82,29.64,10.0,West,3.5,-,N/A,,Unknown,280,2013-07-07 12:16:00
4:36 AM,51.8,46.4,82,29.64,10.0,West,4.6,-,N/A,,Unknown,280,2013-07-07 12:36:00
4:56 AM,50.0,46.4,87,29.63,10.0,Calm,Calm,-,0.01,,Unknown,0,2013-07-07 12:56:00
5:16 AM,48.2,46.4,93,29.62,10.0,WNW,3.5,-,N/A,,Unknown,290,2013-07-07 13:16:00
5:36 AM,50.0,46.4,87,29.61,10.0,NW,3.5,-,N/A,,Unknown,320,2013-07-07 13:36:00
5:56 AM,50.0,46.4,87,29.60,10.0,Calm,Calm,-,N/A,,Unknown,0,2013-07-07 13:56:00
6:16 AM,50.0,46.4,87,29.60,10.0,West,3.5,-,N/A,,Unknown,270,2013-07-07 14:16:00
6:36 AM,51.8,46.4,82,29.59,10.0,NNW,3.5,-,N/A,,Unknown,340,2013-07-07 14:36:00
6:56 AM,51.8,46.4,82,29.59,10.0,North,4.6,-,N/A,,Unknown,10,2013-07-07 14:56:00
7:16 AM,51.8,46.4,82,29.58,10.0,NNE,3.5,-,N/A,,Unknown,20,2013-07-07 15:16:00
7:36 AM,51.8,48.2,88,29.58,10.0,Calm,Calm,-,N/A,,Unknown,0,2013-07-07 15:36:00
7:56 AM,53.6,48.2,82,29.57,10.0,NNE,5.8,-,N/A,,Unknown,20,2013-07-07 15:56:00
8:16 AM,53.6,50.0,88,29.57,10.0,NE,5.8,-,N/A,,Unknown,50,2013-07-07 16:16:00
8:36 AM,55.4,48.2,77,29.57,10.0,North,3.5,-,N/A,,Unknown,10,2013-07-07 16:36:00
8:56 AM,55.4,50.0,82,29.57,10.0,North,3.5,-,N/A,,Unknown,350,2013-07-07 16:56:00
9:16 AM,55.4,50.0,82,29.57,10.0,Calm,Calm,-,N/A,,Unknown,0,2013-07-07 17:16:00
9:36 AM,55.4,50.0,82,29.57,10.0,Calm,Calm,-,N/A,,Unknown,0,2013-07-07 17:36:00
9:56 AM,55.4,51.8,88,29.57,10.0,West,5.8,-,N/A,,Unknown,260,2013-07-07 17:56:00
10:16 AM,55.4,50.0,82,29.57,10.0,West,4.6,-,N/A,,Unknown,260,2013-07-07 18:16:00
10:36 AM,55.4,48.2,77,29.57,10.0,Calm,Calm,-,N/A,,Unknown,0,2013-07-07 18:36:00
10:56 AM,55.4,48.2,77,29.57,10.0,SSW,6.9,-,N/A,,Unknown,200,2013-07-07 18:56:00
11:16 AM,53.6,46.4,77,29.58,10.0,South,6.9,-,N/A,,Unknown,190,2013-07-07 19:16:00
11:36 AM,53.6,46.4,77,29.58,10.0,SSW,6.9,-,N/A,,Unknown,210,2013-07-07 19:36:00
11:56 AM,53.6,46.4,77,29.58,10.0,West,3.5,-,N/A,,Unknown,270,2013-07-07 19:56:00
12:16 PM,53.6,48.2,82,29.59,10.0,SW,3.5,-,N/A,,Unknown,230,2013-07-07 20:16:00
12:36 PM,53.6,48.2,82,29.59,10.0,SW,4.6,-,N/A,,Unknown,230,2013-07-07 20:36:00
12:56 PM,55.4,46.4,72,29.59,10.0,SW,5.8,-,N/A,,Unknown,220,2013-07-07 20:56:00
1:16 PM,55.4,46.4,72,29.59,10.0,SW,6.9,-,N/A,,Unknown,230,2013-07-07 21:16:00
1:36 PM,55.4,46.4,72,29.59,10.0,SW,6.9,-,N/A,,Unknown,230,2013-07-07 21:36:00
1:56 PM,55.4,48.2,77,29.60,10.0,West,5.8,-,N/A,,Unknown,280,2013-07-07 21:56:00
2:16 PM,53.6,48.2,82,29.60,10.0,NNW,4.6,-,0.01,,Unknown,330,2013-07-07 22:16:00
2:36 PM,55.4,48.2,77,29.60,10.0,NNW,3.5,-,0.02,,Unknown,340,2013-07-07 22:36:00
2:56 PM,55.4,50.0,82,29.61,10.0,WSW,11.5,-,0.02,,Unknown,250,2013-07-07 22:56:00
3:16 PM,53.6,48.2,82,29.61,10.0,WSW,12.7,-,0.01,,Unknown,250,2013-07-07 23:16:00
3:36 PM,53.6,48.2,82,29.62,10.0,West,11.5,-,0.01,,Unknown,270,2013-07-07 23:36:00
3:56 PM,51.8,46.4,82,29.63,10.0,West,11.5,-,0.01,,Unknown,260,2013-07-07 23:56:00
4:16 PM,51.8,48.2,88,29.63,10.0,WSW,10.4,-,0.02,,Unknown,240,2013-07-08 00:16:00
4:36 PM,51.8,46.4,82,29.63,10.0,WSW,10.4,-,0.03,,Unknown,240,2013-07-08 00:36:00
4:56 PM,53.6,46.4,77,29.63,10.0,WSW,11.5,17.3,0.03,,Unknown,240,2013-07-08 00:56:00
5:16 PM,51.8,46.4,82,29.64,10.0,West,9.2,-,N/A,,Unknown,260,2013-07-08 01:16:00
5:36 PM,51.8,46.4,82,29.64,10.0,WSW,9.2,-,N/A,,Unknown,250,2013-07-08 01:36:00
5:56 PM,51.8,46.4,82,29.64,10.0,WSW,8.1,-,N/A,,Unknown,250,2013-07-08 01:56:00
6:16 PM,51.8,46.4,82,29.64,10.0,WSW,9.2,-,N/A,,Unknown,250,2013-07-08 02:16:00
6:36 PM,51.8,46.4,82,29.64,10.0,SW,8.1,-,N/A,,Unknown,230,2013-07-08 02:36:00
6:56 PM,51.8,46.4,82,29.65,10.0,WSW,8.1,-,N/A,,Unknown,250,2013-07-08 02:56:00
7:16 PM,51.8,44.6,76,29.65,10.0,WSW,10.4,-,N/A,,Unknown,250,2013-07-08 03:16:00
7:36 PM,51.8,44.6,76,29.64,10.0,WSW,6.9,-,N/A,,Unknown,240,2013-07-08 03:36:00
7:56 PM,51.8,44.6,76,29.65,10.0,West,5.8,-,N/A,,Unknown,260,2013-07-08 03:56:00
8:16 PM,51.8,44.6,76,29.65,10.0,West,6.9,-,N/A,,Unknown,260,2013-07-08 04:16:00
8:36 PM,51.8,44.6,76,29.66,10.0,West,4.6,-,N/A,,Unknown,270,2013-07-08 04:36:00
8:56 PM,51.8,44.6,76,29.66,10.0,West,4.6,-,N/A,,Unknown,270,2013-07-08 04:56:00
9:16 PM,51.8,44.6,76,29.66,10.0,WSW,3.5,-,N/A,,Unknown,250,2013-07-08 05:16:00
9:36 PM,51.8,44.6,76,29.66,10.0,West,5.8,-,N/A,,Unknown,270,2013-07-08 05:36:00
9:56 PM,51.8,44.6,76,29.67,10.0,West,8.1,-,N/A,,Unknown,270,2013-07-08 05:56:00
10:16 PM,51.8,42.8,71,29.67,10.0,West,3.5,-,N/A,,Unknown,260,2013-07-08 06:16:00
10:36 PM,50.0,44.6,82,29.68,10.0,Calm,Calm,-,N/A,,Unknown,0,2013-07-08 06:36:00
10:56 PM,50.0,42.8,76,29.68,10.0,SW,3.5,-,N/A,,Unknown,220,2013-07-08 06:56:00
11:16 PM,48.2,42.8,82,29.68,10.0,SW,4.6,-,N/A,,Unknown,230,2013-07-08 07:16:00
11:36 PM,48.2,42.8,82,29.68,10.0,Calm,Calm,-,N/A,,Unknown,0,2013-07-08 07:36:00
11:56 PM,48.2,42.8,82,29.68,10.0,Calm,Calm,-,N/A,,Unknown,0,2013-07-08 07:56:00